KB7STN Weather Reports


time (UTC)temp
C
wind
direction
speed
KPH
gust
KPH
rain 1hr
cm
rain 24hr
cm
rain mn
cm
humidity
%
barometer
mb
20260904044017 23 227 3.2 11.3 0.00 0.00 0.00 17 1013.1
20260904043516 23 223 3.2 11.3 0.00 0.00 0.00 17 1013.1
20260904043017 23 238 3.2 8.0 0.00 0.00 0.00 17 1013.1
20260904042516 23 241 1.6 17.7 0.00 0.00 0.00 17 1013.1
20260904042017 23 261 1.6 3.2 0.00 0.00 0.00 17 1013.1
20260904041517 23 261 0.0 6.4 0.00 0.00 0.00 17 1013.0
20260904041017 23 261 0.0 6.4 0.00 0.00 0.00 17 1013.1
20260904040517 23 261 0.0 8.0 0.00 0.00 0.00 17 1013.0
20260904040017 23 263 0.0 4.8 0.00 0.00 0.00 17 1013.0
20260904035517 23 263 0.0 4.8 0.00 0.00 0.00 17 1012.9
20260904035017 23 263 0.0 4.8 0.00 0.00 0.00 17 1012.7
20260904034517 23 263 0.0 8.0 0.00 0.00 0.00 17 1012.7
20260904034017 23 263 0.0 4.8 0.00 0.00 0.00 17 1012.6
20260904033517 23 263 0.0 6.4 0.00 0.00 0.00 17 1012.7
20260904033017 23 263 0.0 4.8 0.00 0.00 0.00 17 1012.7
20260904032517 23 263 0.0 0.0 0.00 0.00 0.00 17 1012.7
20260904032017 23 264 0.0 3.2 0.00 0.00 0.00 17 1012.7
20260904031517 23 263 0.0 1.6 0.00 0.00 0.00 18 1012.6
20260904031017 23 264 0.0 0.0 0.00 0.00 0.00 17 1012.6
20260904030517 23 264 0.0 0.0 0.00 0.00 0.00 16 1012.6
20260904030017 23 263 0.0 4.8 0.00 0.00 0.00 17 1012.5
20260904025517 23 264 0.0 6.4 0.00 0.00 0.00 16 1012.5
20260904025017 23 264 0.0 0.0 0.00 0.00 0.00 16 1012.5
20260904024517 24 264 0.0 0.0 0.00 0.00 0.00 17 1012.5
20260904024017 24 264 1.6 4.8 0.00 0.00 0.00 16 1012.5
20260904023517 24 265 1.6 4.8 0.00 0.00 0.00 16 1012.5
20260904023017 24 265 0.0 0.0 0.00 0.00 0.00 16 1012.5
20260904022517 24 264 0.0 3.2 0.00 0.00 0.00 16 1012.3
20260904022017 24 264 0.0 1.6 0.00 0.00 0.00 16 1012.4
20260904021517 25 264 0.0 3.2 0.00 0.00 0.00 16 1012.4
20260904021017 25 264 0.0 4.8 0.00 0.00 0.00 16 1012.4
20260904020517 25 265 1.6 3.2 0.00 0.00 0.00 16 1012.4
20260904020017 25 269 1.6 6.4 0.00 0.00 0.00 15 1012.4
20260904015517 25 268 1.6 9.7 0.00 0.00 0.00 15 1012.4
20260904015017 25 283 0.0 6.4 0.00 0.00 0.00 15 1012.4
20260904014517 25 287 1.6 8.0 0.00 0.00 0.00 15 1012.5
20260904014017 25 289 1.6 14.5 0.00 0.00 0.00 15 1012.5
20260904013517 25 246 0.0 6.4 0.00 0.00 0.00 15 1012.4
20260904013017 25 236 1.6 6.4 0.00 0.00 0.00 15 1012.5
20260904012517 25 228 1.6 12.9 0.00 0.00 0.00 15 1012.4
20260904012017 25 261 1.6 8.0 0.00 0.00 0.00 16 1012.5
20260904011517 26 253 1.6 11.3 0.00 0.00 0.00 15 1012.6
20260904011017 26 257 1.6 12.9 0.00 0.00 0.00 15 1012.5
20260904010517 26 256 1.6 8.0 0.00 0.00 0.00 15 1012.6
20260904010017 26 273 3.2 20.9 0.00 0.00 0.00 15 1012.7
20260904005517 26 211 1.6 11.3 0.00 0.00 0.00 15 1012.7
20260904005017 26 257 1.6 6.4 0.00 0.00 0.00 15 1012.8
20260904004517 26 261 1.6 6.4 0.00 0.00 0.00 15 1012.8
20260904004017 26 260 1.6 9.7 0.00 0.00 0.00 15 1012.8
20260904003517 26 258 1.6 12.9 0.00 0.00 0.00 15 1012.8
20260904003017 26 260 1.6 17.7 0.00 0.00 0.00 15 1012.7
20260904002517 26 278 1.6 12.9 0.00 0.00 0.00 15 1013.0
20260904002017 26 223 1.6 11.3 0.00 0.00 0.00 15 1012.8
20260904001517 26 236 1.6 9.7 0.00 0.00 0.00 15 1012.7
20260904001017 27 257 1.6 12.9 0.00 0.00 0.00 16 1012.8
20260904000517 27 257 3.2 9.7 0.00 0.00 0.00 15 1012.7
20260904000017 27 256 1.6 8.0 0.00 0.00 0.00 15 1012.8
20260903235517 27 244 1.6 12.9 0.00 0.00 0.00 16 1012.7
20260903235017 27 246 1.6 9.7 0.00 0.00 0.00 16 1012.7
20260903234517 27 273 3.2 9.7 0.00 0.00 0.00 15 1012.8
20260903234017 27 256 3.2 12.9 0.00 0.00 0.00 15 1013.0
20260903233517 27 212 3.2 11.3 0.00 0.00 0.00 15 1013.0
20260903233017 27 213 3.2 11.3 0.00 0.00 0.00 15 1013.1
20260903232517 27 229 3.2 11.3 0.00 0.00 0.00 15 1013.0
20260903232017 27 196 3.2 16.1 0.00 0.00 0.00 15 1013.1
20260903231517 27 236 1.6 8.0 0.00 0.00 0.00 15 1013.1
20260903231017 27 238 1.6 8.0 0.00 0.00 0.00 15 1013.1
20260903230517 27 247 1.6 22.5 0.00 0.00 0.00 15 1013.3
20260903230017 27 291 3.2 12.9 0.00 0.00 0.00 15 1013.5
20260903225517 27 166 3.2 9.7 0.00 0.00 0.00 15 1013.4
20260903225017 27 220 1.6 14.5 0.00 0.00 0.00 14 1013.4
20260903224517 27 230 3.2 9.7 0.00 0.00 0.00 14 1013.6
20260903224017 27 264 3.2 12.9 0.00 0.00 0.00 14 1013.7
20260903223517 27 289 3.2 9.7 0.00 0.00 0.00 14 1013.7
20260903223017 27 296 3.2 16.1 0.00 0.00 0.00 13 1013.9
20260903222517 27 271 3.2 14.5 0.00 0.00 0.00 15 1013.8
20260903222017 27 210 3.2 11.3 0.00 0.00 0.00 14 1014.0
20260903221517 27 265 3.2 11.3 0.00 0.00 0.00 14 1014.1
20260903221017 27 217 3.2 14.5 0.00 0.00 0.00 13 1014.1
20260903220517 27 230 1.6 9.7 0.00 0.00 0.00 15 1014.1
20260903220017 27 213 1.6 6.4 0.00 0.00 0.00 14 1014.2
20260903215517 27 214 1.6 8.0 0.00 0.00 0.00 14 1014.2
20260903215017 27 219 1.6 8.0 0.00 0.00 0.00 14 1014.3
20260903214517 27 231 3.2 11.3 0.00 0.00 0.00 15 1014.3
20260903214017 27 250 4.8 12.9 0.00 0.00 0.00 14 1014.4
20260903213517 27 223 4.8 12.9 0.00 0.00 0.00 14 1014.3
20260903213017 27 229 4.8 11.3 0.00 0.00 0.00 13 1014.5
20260903212517 27 208 3.2 8.0 0.00 0.00 0.00 13 1014.4
20260903212017 27 267 1.6 12.9 0.00 0.00 0.00 15 1014.5
20260903211517 27 268 3.2 12.9 0.00 0.00 0.00 14 1014.5
20260903211017 27 223 3.2 22.5 0.00 0.00 0.00 14 1014.7
20260903210517 27 275 3.2 9.7 0.00 0.00 0.00 15 1014.7
20260903210017 27 211 6.4 16.1 0.00 0.00 0.00 14 1014.9
20260903205517 27 207 3.2 14.5 0.00 0.00 0.00 14 1015.0
20260903205017 27 194 1.6 6.4 0.00 0.00 0.00 16 1014.9
20260903204517 27 207 1.6 11.3 0.00 0.00 0.00 15 1015.1
20260903204017 27 221 1.6 12.9 0.00 0.00 0.00 15 1015.1
20260903203517 27 246 1.6 19.3 0.00 0.00 0.00 15 1015.2
20260903203017 27 214 3.2 8.0 0.00 0.00 0.00 15 1015.3
20260903202517 27 243 3.2 14.5 0.00 0.00 0.00 15 1015.4
20260903202017 27 217 1.6 12.9 0.00 0.00 0.00 16 1015.6
20260903201517 26 208 0.0 6.4 0.00 0.00 0.00 17 1015.6
20260903201017 26 209 0.0 6.4 0.00 0.00 0.00 15 1015.6
20260903200517 26 223 1.6 12.9 0.00 0.00 0.00 15 1015.7
20260903200017 26 258 3.2 9.7 0.00 0.00 0.00 16 1015.8
20260903195517 26 229 3.2 9.7 0.00 0.00 0.00 15 1015.9
20260903195017 26 217 4.8 11.3 0.00 0.00 0.00 16 1015.9
20260903194517 26 211 1.6 16.1 0.00 0.00 0.00 16 1015.8
20260903194017 26 263 0.0 3.2 0.00 0.00 0.00 17 1016.0
20260903193517 26 263 3.2 11.3 0.00 0.00 0.00 16 1016.0
20260903193017 26 270 3.2 12.9 0.00 0.00 0.00 15 1016.2
20260903192517 26 184 3.2 12.9 0.00 0.00 0.00 15 1016.3
20260903192017 26 174 1.6 11.3 0.00 0.00 0.00 16 1016.3
20260903191517 26 261 1.6 6.4 0.00 0.00 0.00 17 1016.4
20260903191017 26 271 1.6 9.7 0.00 0.00 0.00 17 1016.5
20260903190517 26 257 1.6 9.7 0.00 0.00 0.00 17 1016.5
20260903190017 26 277 1.6 9.7 0.00 0.00 0.00 17 1016.7
20260903185518 26 213 1.6 17.7 0.00 0.00 0.00 16 1016.7
20260903185017 26 220 1.6 12.9 0.00 0.00 0.00 17 1016.7
20260903184517 25 228 1.6 9.7 0.00 0.00 0.00 17 1016.8
20260903184017 25 252 1.6 8.0 0.00 0.00 0.00 16 1016.9
20260903183517 25 263 1.6 8.0 0.00 0.00 0.00 17 1016.9
20260903183017 25 276 3.2 12.9 0.00 0.00 0.00 16 1016.8
20260903182517 25 231 3.2 9.7 0.00 0.00 0.00 16 1017.3
20260903182017 25 210 4.8 12.9 0.00 0.00 0.00 18 1017.0
20260903181517 25 220 4.8 17.7 0.00 0.00 0.00 17 1017.0
20260903181018 25 211 3.2 9.7 0.00 0.00 0.00 18 1017.3
20260903180518 25 198 3.2 12.9 0.00 0.00 0.00 17 1017.3
20260903180017 25 195 1.6 9.7 0.00 0.00 0.00 17 1017.3
20260903175518 24 200 1.6 6.4 0.00 0.00 0.00 17 1017.3
20260903175017 24 192 3.2 17.7 0.00 0.00 0.00 18 1017.4
20260903174518 24 202 3.2 8.0 0.00 0.00 0.00 19 1017.4
20260903174017 24 196 3.2 12.9 0.00 0.00 0.00 16 1017.4
20260903173518 24 203 3.2 14.5 0.00 0.00 0.00 18 1017.5
20260903173018 24 212 3.2 11.3 0.00 0.00 0.00 16 1017.4
20260903172518 23 223 3.2 11.3 0.00 0.00 0.00 17 1017.4
20260903172018 23 224 1.6 9.7 0.00 0.00 0.00 19 1017.3
20260903171518 23 225 3.2 9.7 0.00 0.00 0.00 17 1017.4
20260903171018 23 220 1.6 12.9 0.00 0.00 0.00 20 1017.4
20260903170518 23 224 4.8 14.5 0.00 0.00 0.00 18 1017.6
20260903170018 23 250 4.8 14.5 0.00 0.00 0.00 18 1017.5
20260903165518 23 223 3.2 9.7 0.00 0.00 0.00 19 1017.5
20260903165018 23 205 3.2 11.3 0.00 0.00 0.00 18 1017.5
20260903164518 23 224 3.2 12.9 0.00 0.00 0.00 18 1017.4
20260903164018 22 253 3.2 9.7 0.00 0.00 0.00 19 1017.5
20260903163518 22 281 4.8 11.3 0.00 0.00 0.00 20 1017.5
20260903163018 22 221 4.8 11.3 0.00 0.00 0.00 18 1017.5
20260903162518 22 222 3.2 8.0 0.00 0.00 0.00 19 1017.5
20260903162018 22 191 1.6 9.7 0.00 0.00 0.00 20 1017.6
20260903161518 21 215 3.2 8.0 0.00 0.00 0.00 20 1017.5
20260903161018 21 202 3.2 8.0 0.00 0.00 0.00 20 1017.5
20260903160518 21 272 3.2 12.9 0.00 0.00 0.00 20 1017.6
20260903160018 21 246 3.2 9.7 0.00 0.00 0.00 21 1017.5
20260903155518 21 255 3.2 8.0 0.00 0.00 0.00 19 1017.6
20260903155018 21 201 1.6 8.0 0.00 0.00 0.00 19 1017.6
20260903154518 21 209 1.6 8.0 0.00 0.00 0.00 19 1017.5
20260903154018 21 217 3.2 6.4 0.00 0.00 0.00 19 1017.5
20260903153518 21 214 3.2 9.7 0.00 0.00 0.00 19 1017.7
20260903153018 21 223 1.6 9.7 0.00 0.00 0.00 19 1017.8
20260903152518 21 281 3.2 6.4 0.00 0.00 0.00 18 1017.7
20260903152018 21 202 3.2 9.7 0.00 0.00 0.00 19 1017.9
20260903151518 20 220 3.2 9.7 0.00 0.00 0.00 18 1017.9
20260903151018 20 225 3.2 9.7 0.00 0.00 0.00 19 1017.9
20260903150518 20 228 3.2 8.0 0.00 0.00 0.00 19 1017.9
20260903150018 20 228 3.2 8.0 0.00 0.00 0.00 19 1017.9
20260903145518 20 230 1.6 4.8 0.00 0.00 0.00 19 1017.8
20260903145018 20 232 1.6 11.3 0.00 0.00 0.00 19 1017.9
20260903144518 20 219 3.2 8.0 0.00 0.00 0.00 19 1017.8
20260903144018 20 219 3.2 9.7 0.00 0.00 0.00 19 1017.8
20260903143518 20 220 3.2 11.3 0.00 0.00 0.00 18 1017.8
20260903143018 20 228 3.2 9.7 0.00 0.00 0.00 19 1017.8
20260903142518 20 236 3.2 9.7 0.00 0.00 0.00 19 1017.8
20260903142018 19 202 3.2 11.3 0.00 0.00 0.00 19 1017.7
20260903141518 19 197 3.2 16.1 0.00 0.00 0.00 19 1017.7
20260903141018 19 232 3.2 9.7 0.00 0.00 0.00 19 1017.7
20260903140518 19 227 3.2 9.7 0.00 0.00 0.00 19 1017.7
20260903140018 19 240 3.2 11.3 0.00 0.00 0.00 19 1017.8
20260903135518 18 230 3.2 8.0 0.00 0.00 0.00 19 1017.8
20260903135018 18 236 3.2 11.3 0.00 0.00 0.00 19 1017.8
20260903134518 18 245 1.6 9.7 0.00 0.00 0.00 19 1017.7
20260903134018 18 250 1.6 8.0 0.00 0.00 0.00 19 1017.7
20260903133518 18 227 1.6 8.0 0.00 0.00 0.00 19 1017.6
20260903133018 17 226 1.6 6.4 0.00 0.00 0.00 19 1017.6
20260903132518 17 229 1.6 8.0 0.00 0.00 0.00 19 1017.5
20260903132018 17 225 1.6 12.9 0.00 0.00 0.00 20 1017.4
20260903131518 17 219 1.6 4.8 0.00 0.00 0.00 20 1017.3
20260903131018 17 219 1.6 6.4 0.00 0.00 0.00 20 1017.2
20260903130518 17 209 3.2 6.4 0.00 0.00 0.00 20 1017.1
20260903130018 17 212 3.2 8.0 0.00 0.00 0.00 20 1017.0
20260903125518 17 214 3.2 6.4 0.00 0.00 0.00 19 1017.0
20260903125018 17 215 3.2 8.0 0.00 0.00 0.00 19 1016.9
20260903124518 17 225 3.2 9.7 0.00 0.00 0.00 19 1016.9
20260903124018 17 220 3.2 6.4 0.00 0.00 0.00 20 1016.9
20260903123518 17 198 3.2 11.3 0.00 0.00 0.00 20 1016.9
20260903123018 17 220 3.2 8.0 0.00 0.00 0.00 21 1016.9
20260903122518 17 187 3.2 9.7 0.00 0.00 0.00 22 1016.9
20260903122018 17 205 3.2 8.0 0.00 0.00 0.00 21 1016.8
20260903121518 17 213 3.2 12.9 0.00 0.00 0.00 22 1016.8
20260903121018 17 205 1.6 9.7 0.00 0.00 0.00 20 1016.7
20260903120518 18 190 1.6 11.3 0.00 0.00 0.00 22 1016.7
20260903120018 18 203 1.6 8.0 0.00 0.00 0.00 19 1016.7
20260903115518 18 207 1.6 4.8 0.00 0.00 0.00 19 1016.7
20260903115018 18 207 1.6 8.0 0.00 0.00 0.00 18 1016.6
20260903114518 18 198 1.6 1.6 0.00 0.00 0.00 19 1016.6
20260903114018 18 207 1.6 11.3 0.00 0.00 0.00 18 1016.5
20260903113518 18 208 1.6 6.4 0.00 0.00 0.00 19 1016.6
20260903113018 18 211 1.6 8.0 0.00 0.00 0.00 19 1016.5
20260903112518 18 213 1.6 11.3 0.00 0.00 0.00 18 1016.6
20260903112018 18 200 1.6 6.4 0.00 0.00 0.00 20 1016.7
20260903111518 18 203 1.6 6.4 0.00 0.00 0.00 18 1016.6
20260903111018 18 215 1.6 6.4 0.00 0.00 0.00 19 1016.6
20260903110518 18 211 1.6 9.7 0.00 0.00 0.00 17 1016.6
20260903110018 18 211 1.6 4.8 0.00 0.00 0.00 18 1016.6
20260903105518 18 213 1.6 6.4 0.00 0.00 0.00 18 1016.5
20260903105018 18 213 1.6 4.8 0.00 0.00 0.00 19 1016.5
20260903104518 18 214 1.6 8.0 0.00 0.00 0.00 19 1016.4
20260903104018 18 207 1.6 8.0 0.00 0.00 0.00 20 1016.4
20260903103518 18 202 1.6 6.4 0.00 0.00 0.00 18 1016.3
20260903103018 18 227 3.2 4.8 0.00 0.00 0.00 18 1016.4
20260903102518 18 213 1.6 6.4 0.00 0.00 0.00 18 1016.3
20260903102018 18 189 1.6 6.4 0.00 0.00 0.00 19 1016.3
20260903101518 18 199 1.6 11.3 0.00 0.00 0.00 19 1016.3
20260903101018 18 213 1.6 11.3 0.00 0.00 0.00 20 1016.4
20260903100518 17 215 1.6 8.0 0.00 0.00 0.00 20 1016.3
20260903100018 17 232 1.6 16.1 0.00 0.00 0.00 22 1016.2
20260903095518 17 268 1.6 8.0 0.00 0.00 0.00 26 1016.2
20260903095018 17 186 1.6 12.9 0.00 0.00 0.00 25 1016.2
20260903094518 18 146 1.6 8.0 0.00 0.00 0.00 27 1016.1
20260903094018 18 212 1.6 9.7 0.00 0.00 0.00 23 1016.1
20260903093518 18 203 1.6 8.0 0.00 0.00 0.00 19 1016.0
20260903093018 18 222 1.6 8.0 0.00 0.00 0.00 19 1016.1
20260903092518 18 257 0.0 4.8 0.00 0.00 0.00 18 1016.1
20260903092018 18 259 0.0 6.4 0.00 0.00 0.00 19 1016.0
20260903091518 17 261 0.0 6.4 0.00 0.00 0.00 21 1016.0
20260903091019 17 262 0.0 12.9 0.00 0.00 0.00 21 1016.0
20260903090518 17 262 0.0 8.0 0.00 0.00 0.00 24 1016.1
20260903090018 17 256 0.0 0.0 0.00 0.00 0.00 30 1016.1
20260903085518 17 256 0.0 0.0 0.00 0.00 0.00 28 1016.1
20260903085018 17 256 0.0 0.0 0.00 0.00 0.00 31 1016.1
20260903084518 17 256 0.0 0.0 0.00 0.00 0.00 30 1016.0
20260903084018 18 256 0.0 0.0 0.00 0.00 0.00 28 1016.1
20260903083518 18 256 0.0 0.0 0.00 0.00 0.00 29 1016.1
20260903083018 18 256 0.0 0.0 0.00 0.00 0.00 28 1016.1
20260903082518 19 256 0.0 0.0 0.00 0.00 0.00 24 1016.1
20260903082018 19 256 0.0 0.0 0.00 0.00 0.00 18 1016.1
20260903081518 19 256 0.0 1.6 0.00 0.00 0.00 19 1016.1
20260903081018 19 256 0.0 0.0 0.00 0.00 0.00 18 1016.0
20260903080518 19 256 0.0 0.0 0.00 0.00 0.00 18 1016.1
20260903080018 19 256 0.0 0.0 0.00 0.00 0.00 19 1016.0
20260903075518 19 256 0.0 0.0 0.00 0.00 0.00 18 1016.0
20260903075018 19 256 0.0 1.6 0.00 0.00 0.00 19 1015.9
20260903074518 19 256 0.0 4.8 0.00 0.00 0.00 19 1015.9
20260903074018 19 256 0.0 0.0 0.00 0.00 0.00 19 1016.0
20260903073518 18 256 0.0 1.6 0.00 0.00 0.00 19 1015.9
20260903073018 18 256 0.0 0.0 0.00 0.00 0.00 19 1015.8
20260903072519 18 256 0.0 4.8 0.00 0.00 0.00 20 1015.8
20260903072019 18 256 0.0 0.0 0.00 0.00 0.00 21 1015.9
20260903071519 18 256 0.0 0.0 0.00 0.00 0.00 21 1015.7
20260903071019 18 256 0.0 0.0 0.00 0.00 0.00 22 1015.8
20260903070519 18 256 0.0 0.0 0.00 0.00 0.00 23 1015.8
20260903070019 18 256 0.0 0.0 0.00 0.00 0.00 24 1015.7
20260903065519 18 256 0.0 0.0 0.00 0.00 0.00 25 1015.6
20260903065019 18 256 0.0 0.0 0.00 0.00 0.00 24 1015.6
20260903064519 18 256 0.0 0.0 0.00 0.00 0.00 26 1015.5
20260903064019 18 256 0.0 0.0 0.00 0.00 0.00 29 1015.5
20260903063519 18 256 0.0 0.0 0.00 0.00 0.00 26 1015.5
20260903063019 18 256 0.0 0.0 0.00 0.00 0.00 27 1015.4
20260903062519 18 256 0.0 0.0 0.00 0.00 0.00 28 1015.5
20260903062019 18 256 0.0 0.0 0.00 0.00 0.00 27 1015.4
20260903061519 18 256 0.0 0.0 0.00 0.00 0.00 27 1015.4
20260903061019 18 256 0.0 0.0 0.00 0.00 0.00 27 1015.4
20260903060519 18 256 0.0 0.0 0.00 0.00 0.00 27 1015.3
20260903060019 18 256 0.0 0.0 0.00 0.00 0.00 27 1015.3
20260903055519 18 256 0.0 0.0 0.00 0.00 0.00 26 1015.1
20260903055019 18 256 0.0 0.0 0.00 0.00 0.00 27 1015.2
20260903054519 19 256 0.0 0.0 0.00 0.00 0.00 28 1015.2
20260903054019 19 256 0.0 0.0 0.00 0.00 0.00 29 1015.3
20260903053519 20 256 0.0 0.0 0.00 0.00 0.00 32 1015.4
20260903053019 20 256 0.0 0.0 0.00 0.00 0.00 25 1015.3
20260903052519 20 256 0.0 0.0 0.00 0.00 0.00 25 1015.2
20260903052019 20 256 0.0 0.0 0.00 0.00 0.00 24 1015.2
20260903051519 21 256 0.0 0.0 0.00 0.00 0.00 22 1015.2
20260903051019 21 256 0.0 0.0 0.00 0.00 0.00 22 1015.2
20260903050519 21 256 0.0 0.0 0.00 0.00 0.00 23 1015.3
20260903050019 21 256 0.0 0.0 0.00 0.00 0.00 23 1015.3
20260903045519 22 256 0.0 0.0 0.00 0.00 0.00 21 1015.3
20260903045019 22 256 0.0 0.0 0.00 0.00 0.00 19 1015.4
20260903044519 22 256 0.0 0.0 0.00 0.00 0.00 18 1015.5